Miscellaneous Local Product
Issued by NWS North Platte, NE

Home | Current Version | Previous Version | Text Only | Print | Product List | Glossary On
Versions: 1 2 3 4 5 6 7 8 9 10 11 12 13 14 15 16 17 18 19 20 21 22 23 24 25 26 27 28 29 30 31 32 33 34 35 36 37 38 39 40 41 42 43 44 45 46 47 48 49 50
088
AXUS43 KLBF 262210
MISLBF


WESTERN AND NORTH CENTRAL NEBRASKA HOURLY WEATHER ROUNDUP
NATIONAL WEATHER SERVICE NORTH PLATTE NE
500 PM CDT FRI AUG 26 2016

NOTE: "FAIR" INDICATES FEW OR NO CLOUDS BELOW 12,000 FEET WITH NO
SIGNIFICANT WEATHER AND/OR OBSTRUCTIONS TO VISIBILITY.

NOTE: STATIONS NOT REPORTING VARIABLES SUCH AS SKY/WEATHER OR
PRESSURE ARE PROVIDED BY RAWS AND APRS NETWORKS AND ARE NOT UNDER
NATIONAL WEATHER SERVICE QUALITY CONTROL.

...OBSERVATIONS IN AND NEAR THE EASTERN PANHANDLE OF NEBRASKA...

CITY           SKY/WX    TMP DP  RH WIND       PRES   REMARKS
PINE RIDGE     SUNNY     70  58  65 S9        30.04F
CHADRON        MOSUNNY   71  53  52 S5        30.01F
ALLIANCE       SUNNY     69  49  48 SE10      30.06F
SIDNEY         CLOUDY    68  57  68 SE9       30.09R
CRESCENT LAKE    N/A     65  55  69 E9          N/A
$$

...OBSERVATIONS IN NORTHERN NEBRASKA AND FAR SOUTHERN SOUTH DAKOTA...

CITY           SKY/WX    TMP DP  RH WIND       PRES   REMARKS
WINNER         LGT RAIN  65  58  78 CALM      30.09F
VALENTINE      LGT RAIN  61  58  90 E13       30.08F
THEDFORD       LGT RAIN  62  59  93 N10       30.11S
AINSWORTH      LGT RAIN  69  56  63 SE3       30.09F
O`NEILL        CLOUDY    74  52  46 E8        30.09F
ORD            CLOUDY    72  55  55 E10       30.06F
BROKEN BOW     CLOUDY    69  57  65 E7        30.07F
VALENTINE NWR    N/A     60  58  93 NW8G16      N/A
BUTTE            N/A     72  55  54 E3G13       N/A
HALSEY           N/A     69  55  60 E5          N/A
EWING            N/A     72  61  68 E5          N/A
$$

...OBSERVATIONS IN SOUTHWEST NEBRASKA AND FAR NORTHEAST COLORADO...

CITY           SKY/WX    TMP DP  RH WIND       PRES   REMARKS
WRAY           TSTM      59  54  82 SE7       30.06R
HOLYOKE        TSTM      61  57  88 E5        30.07S
IMPERIAL       RAIN      62  59  90 NE13      30.08R FOG
OGALLALA       CLOUDY    61  57  87 E6        30.07F
NORTH PLATTE   LGT RAIN  67  59  75 S5        30.09R
MCCOOK         LGT RAIN  70  59  68 N7        30.05F
LEXINGTON      CLOUDY    72  57  59 E9        30.07S
STAPLETON        N/A     67  58  72 CALM        N/A
GOTHENBURG       N/A     70  53  54 E5          N/A
CALLAWAY         N/A     70  57  62 E6          N/A
$$

...OBSERVATIONS IN CENTRAL LINCOLN COUNTY AREA...

CITY           SKY/WX    TMP DP  RH WIND       PRES   REMARKS
N.P. AIRPORT   LGT RAIN  67  59  75 S5        30.09R
N.P. DOWNTOWN    N/A     61  60  95 NW6         N/A
N.P. SOUTHEAST   N/A     62  59  89 NW3         N/A
N.P. HILLCREST   N/A     61  58  91 NW10G18     N/A
$$

...SOME OBSERVATIONS FROM AROUND THE REGION...

CITY           SKY/WX    TMP DP  RH WIND       PRES   REMARKS
DENVER         PTSUNNY   79  38  22 N5        30.06F
LARAMIE        SUNNY     71  25  17 W17G23    30.13F
CHEYENNE       CLOUDY    61  54  77 SE13      30.14R
SCOTTSBLUFF    CLOUDY    68  53  58 SE15      30.06R
RAPID CITY     SUNNY     68  55  63 S13G21    30.01F
BISMARCK       SUNNY     72  51  47 S18G29    30.04F
PIERRE         CLOUDY    62  55  77 SE9       30.06F
SIOUX FALLS    CLOUDY    73  59  61 E9        30.11F
OMAHA          CLOUDY    71  61  70 SE7       30.07S
GRAND ISLAND   CLOUDY    70  60  70 E9        30.06F
KANSAS CITY    CLOUDY    82  67  60 SE10      29.99F
WICHITA        PTSUNNY   82  67  60 MISG      29.99F
OKLAHOMA CITY  CLOUDY    86  66  51 NE14      29.97F
DALLAS         CLOUDY    88  70  55 E8        29.95F THUNDER HX  93
AMARILLO       MOSUNNY   83  56  39 S15       30.06F
DODGE CITY     MOSUNNY   77  61  57 S10       30.03S
HAYS           MOSUNNY   73  59  60 SE3       30.02F
GOODLAND       CLOUDY    71  61  70 SE12      30.03F
$$




USA.gov is the U.S. government's official web portal to all federal, state and local government web resources and services.